Weather Roundup
Issued by NWS

Home | Current Version | Previous Version | Graphics & Text | Print | Product List | Glossary Off
Versions: 1 2 3 4 5 6 7 8 9 10 11 12 13 14 15 16 17 18 19 20 21 22 23 24 25 26 27 28 29 30 31 32 33 34 35 36 37 38 39 40 41 42 43 44 45 46 47 48 49 50

000
NZUS93 KARX 172359
HRRWXR

CURRENT HOURLY OBSERVATIONS ACROSS
MUCH OF THE UPPER MISSISSIPPI VALLEY
NATIONAL WEATHER SERVICE LA CROSSE WI
600 PM CST WED DEC 17 2014


...SOUTHEAST MINNESOTA...


CITY           SKY/WX    TMP DP  RH WIND       PRES   REMARKS
ROCHESTER      CLOUDY    18  12  77 N7        30.27R WCI   9
ROCHESTER/MAYO CLOUDY    17  11  75 N6        30.28S WCI   9
WINONA         CLOUDY    21  14  73 N5        30.32S WCI  15
AUSTIN         CLOUDY    19  16  86 NE7       30.27S WCI  10
ALBERT LEA     CLEAR     18  16  93 CALM      30.28R
DODGE CENTER   CLEAR     16  12  86 N5        30.27S WCI   9
PRESTON        MOCLDY    15  12  87 N5        30.27R WCI   8
OWATONNA       CLEAR     16  10  79 CALM      30.28R
FARIBAULT      CLEAR     18  12  79 CALM      30.30R
$$

...ELSEWHERE IN MINNESOTA...


CITY           SKY/WX    TMP DP  RH WIND       PRES   REMARKS
MINNEAPOLIS    CLOUDY    18   9  68 NE6       30.32R WCI  10
INTNL FALLS    PTCLDY     6   2  83 NE3       30.32S
DULUTH         CLOUDY    19  13  77 NW3       30.26S
RED WING       FLURRIES  18  10  73 N5        30.31S WCI  11
REDWOOD FALLS  PTCLDY    13   9  84 NW6       30.30S WCI   4
MANKATO        CLEAR     18  10  73 N5        30.29S WCI  11
WORTHINGTON    PTCLDY    16  10  79 NE5       30.27R WCI   9
FAIRMONT       CLEAR     16   9  73 N3        30.28S
$$

...SOUTHWEST WISCONSIN...


CITY           SKY/WX    TMP DP  RH WIND       PRES   REMARKS
LA CROSSE      CLOUDY    21  12  68 N9        30.31R WCI  11
PRAIRIE DU CHI CLEAR     22  15  72 W6        30.29S WCI  15
BOSCOBEL       MOCLDY    19  13  77 CALM      30.29R
LONE ROCK      NOT AVBL
PLATTEVILLE    CLEAR     21  16  81 CALM      30.26S
FORT MC COY    CLOUDY    19  12  74 NW5       30.30R WCI  12
VIROQUA        CLOUDY    19  15  82 NW7       30.25R WCI  10
WIS DELLS      NOT AVBL
$$

...ELSEWHERE IN WISCONSIN...


CITY           SKY/WX    TMP DP  RH WIND       PRES   REMARKS
MILWAUKEE      PTCLDY    24  13  62 NW13      30.23R WCI  12
MADISON        CLOUDY    22  14  71 NW8       30.25R WCI  12
GREEN BAY      CLOUDY    26  17  68 W10       30.21S WCI  16
EAU CLAIRE     NOT AVBL
BLACK RVR FLS  CLOUDY    20  12  71 N3        30.29R
MEDFORD        CLOUDY    18  12  78 NW7       30.21S WCI   9
WAUSAU         CLOUDY    22  14  71 NW8       30.20S WCI  12
WIS RAPIDS     MOCLDY    18  10  71 W6        30.26S WCI  10
MARSHFIELD     CLOUDY    18  11  74 NW9       30.23S WCI   7
RICE LAKE      CLEAR     17  11  74 NW5       30.29F WCI  10
$$

...NORTHEAST IOWA...


CITY           SKY/WX    TMP DP  RH WIND       PRES   REMARKS
DECORAH        PTCLDY    19  14  79 N7        30.26R WCI  10
MASON CITY     CLEAR     16  12  84 NW6       30.29S WCI   7
CHARLES CITY   MOCLDY    21  18  86 NW6       30.28R WCI  14
OELWEIN        PTCLDY    19  16  86 CALM      30.28R
$$

...ELSEWHERE IN IOWA...


CITY           SKY/WX    TMP DP  RH WIND       PRES   REMARKS
DES MOINES     PTCLDY    25  15  66 N5        30.29F WCI  19
IOWA CITY      CLEAR     22  14  71 NW5       30.32R WCI  16
FORT DODGE     FAIR      19  12  73 CALM      30.30R
$$

...NORTHERN ILLINOIS...


CITY           SKY/WX    TMP DP  RH WIND       PRES   REMARKS
CHICAGO-OHARE  CLOUDY    25  16  68 W7        30.25R WCI  17
CHICAGO-MIDWAY CLOUDY    27  17  66 W10       30.26R WCI  17
MOLINE         CLEAR     24  15  68 NW5       30.30R WCI  18
ROCKFORD       CLOUDY    24  15  68 NW7       30.29R WCI  16
PEORIA         CLEAR     25  18  74 SW3       30.31R
$$

NOTE: "FAIR" INDICATES FEW OR NO CLOUDS BELOW 12,000 FEET WITH NO
SIGNIFICANT WEATHER AND/OR OBSTRUCTIONS TO VISIBILITY. WIND
SPEEDS ARE IN MILES-PER-HOUR.



USA.gov is the U.S. government's official web portal to all federal, state and local government web resources and services.